Location: Gorze? G�rny
(49.8500°N, 19.5000°E)
Time: 05:11:54
(UTC+00:00)

Cosmos 1908 Rocket - Pass Details

Date: 13 May 2021
Orbit: 605 x 632 km, 82.5° (Epoch: 20 June)

Event Time Altitude Azimuth Distance (km) Brightness Sun altitude
Rises 22:09:40 0° 345° (NNW) 2,941 8.6 -21.2°
Reaches altitude 10° 22:11:57 10° 341° (NNW) 2,027 7.3 -21.3°
Maximum altitude 22:16:19 51° 266° (W) 799 4.0 -21.4°
Enters shadow 22:17:08 44° 229° (SW) 873 4.0 -21.4°
